Hayward, WI

3:18 PM CST on December 11, 2019 (GMT -0600)
Sawyer County

Weather History for KHYR - November, 2019

Change the Weather History Date:

Friday, November 15, 2019

  Actual Average Record
Temperature  
Mean Temperature 28 °F -  
Max Temperature 34 °F 37 °F 64 °F (2001)
Min Temperature 21 °F 23 °F -9 °F (2014)
Degree Days  
Heating Degree Days 38    
Moisture  
Dew Point 13 °F    
Average Humidity 58    
Maximum Humidity 78    
Minimum Humidity 35    
Precipitation  
Precipitation 0.00 in - - ()
Sea Level Pressure  
Sea Level Pressure 30.35 in    
Wind  
Wind Speed 2 mph ()    
Max Wind Speed 7 mph    
Max Gust Speed -    
Visibility 10.0 miles    
Events      
Averages and records for this station are not official NWS values.
T = Trace of Precipitation, MM = Missing Value Source: Averaged Metar Reports

Daily Weather History Graph

Daily Weather History Graph

Search for Another Location

Airport or City:

Astronomy

Nov. 15, 2019 Rise Set
Actual Time 7:06 AM CST 4:34 PM CST
Civil Twilight 6:33 AM CST 5:06 PM CST
Nautical Twilight 5:57 AM CST 5:42 PM CST
Astronomical Twilight 5:21 AM CST 6:18 PM CST
Moon 7:03 PM CST (11/15) 10:08 AM CST (11/15)
Length of Visible Light 10h 33m
Length of Day
9h 28m
Waning Gibbous, 90% of the Moon is Illuminated
Nov 15
Waning Gibbous
Nov 19
Last Quarter
Nov 26
New
Dec 4
First Quarter
Dec 11
Full

Hourly Weather History & Observations

Time (CST) Temp. Windchill Dew Point Humidity Pressure Visibility Wind Dir Wind Speed Gust Speed Precip Events Conditions
12:33 AM 28.0 °F 24.2 °F 18.0 °F 66% 30.15 in 10.0 mi SW 3.5 mph - N/A   Scattered Clouds
12:53 AM 28.0 °F - 18.0 °F 66% 30.22 in 10.0 mi Calm Calm - N/A   Clear
1:15 AM 25.0 °F - 17.1 °F 72% 30.16 in 10.0 mi Calm Calm - N/A   Mostly Cloudy
1:23 AM 27.0 °F 21.6 °F 18.0 °F 69% 30.16 in 10.0 mi SW 4.6 mph - N/A   Scattered Clouds
1:53 AM 24.1 °F - 17.1 °F 75% 30.23 in 10.0 mi Calm Calm - N/A   Clear
2:53 AM 21.0 °F - 15.1 °F 78% 30.25 in 10.0 mi Calm Calm - N/A   Clear
4:53 AM 24.1 °F - 18.0 °F 77% 30.30 in 10.0 mi Calm Calm - N/A   Clear
5:53 AM 23.0 °F 18.4 °F 15.1 °F 72% 30.32 in 10.0 mi NNW 3.5 mph - N/A   Clear
6:53 AM 21.0 °F - 14.0 °F 74% 30.34 in 10.0 mi Calm Calm - N/A   Clear
7:53 AM 23.0 °F - 14.0 °F 68% 30.37 in 10.0 mi Calm Calm - N/A   Clear
8:53 AM 25.0 °F 17.1 °F 14.0 °F 63% 30.38 in 10.0 mi NNW 6.9 mph - N/A   Clear
9:53 AM 27.0 °F 20.5 °F 12.0 °F 53% 30.40 in 10.0 mi North 5.8 mph - N/A   Clear
10:53 AM 28.9 °F 22.8 °F 10.9 °F 47% 30.41 in 10.0 mi North 5.8 mph - N/A   Clear
11:53 AM 30.9 °F - 10.9 °F 43% 30.40 in 10.0 mi Calm Calm - N/A   Clear
12:53 PM 32.0 °F - 10.9 °F 42% 30.41 in 10.0 mi Calm Calm - N/A   Clear
1:53 PM 34.0 °F 31.0 °F 9.0 °F 35% 30.40 in 10.0 mi North 3.5 mph - N/A   Clear
2:53 PM 34.0 °F 29.8 °F 10.9 °F 38% 30.40 in 10.0 mi South 4.6 mph - N/A   Clear
3:53 PM 33.1 °F 30.0 °F 9.0 °F 37% 30.41 in 10.0 mi SE 3.5 mph - N/A   Clear
4:53 PM 28.9 °F 23.9 °F 9.0 °F 43% 30.41 in 10.0 mi ENE 4.6 mph - N/A   Clear
5:53 PM 27.0 °F 20.5 °F 10.9 °F 51% 30.41 in 10.0 mi ENE 5.8 mph - N/A   Clear
6:53 PM 26.1 °F 20.5 °F 12.0 °F 55% 30.42 in 10.0 mi NE 4.6 mph - N/A   Clear
7:53 PM 25.0 °F 18.1 °F 12.0 °F 58% 30.42 in 10.0 mi ENE 5.8 mph - N/A   Clear
8:53 PM 26.1 °F 20.5 °F 12.9 °F 58% 30.41 in 10.0 mi ENE 4.6 mph - N/A   Overcast
9:53 PM 27.0 °F 21.6 °F 12.9 °F 56% 30.41 in 10.0 mi Variable 4.6 mph - N/A   Overcast
10:53 PM 28.0 °F 24.2 °F 12.9 °F 53% 30.40 in 10.0 mi East 3.5 mph - N/A   Overcast
11:53 PM 28.9 °F 25.2 °F 12.9 °F 51% 30.39 in 10.0 mi SE 3.5 mph - N/A   Overcast